[[{"header":{"parameterUnit":"m.s-1","parameterCategory":1,"la1":30.2991,"la2":30.254,"lo1":-89.0895,"lo2":-89.0444,"dy":0.0017,"dx":0.0017,"nx":28,"ny":28,"refTime":"2024-04-25T21:00:00:Z","depth":0,"parameterNumber":2,"parameterNumberName":"U-component_of_WINDS"},"data":[0,0,0,0,0,0,0,0,0,0,0,0,0,0,0,0,0,0,0,0,0,0,0,0,0,0,0,0,0,0,0,0,0,0,0,0,0,0,0,0,0,0,0,0,0,0,0,0,0,0,0,0,0,0,0,0,0,0,-6.1371,-6.1373,0,-6.152,-6.1521,-6.1523,-6.1484,-6.1481,-6.1478,-6.1475,-6.1626,-6.1632,-6.1639,0,0,0,0,0,0,0,0,0,0,0,0,0,-6.1054,-6.106,-6.1371,-6.1373,-6.1375,-6.1519,-6.1521,-6.1523,-6.1485,-6.1481,-6.1477,-6.1474,-6.1623,-6.1631,-6.1639,0,0,0,0,0,0,0,0,0,0,0,0,0,-6.1196,-6.1062,-6.1371,-6.1373,-6.1375,-6.1519,-6.1521,-6.1524,-6.1485,-6.1481,-6.1477,-6.1472,-6.1621,-6.163,-6.164,-6.1791,0,0,-6.1671,-6.1676,0,0,0,0,0,0,0,0,-6.1188,-6.1207,-6.1371,-6.1373,-6.1375,-6.1479,-6.1464,-6.1613,-6.1487,-6.1443,-6.1475,-6.147,-6.158,-6.1593,-6.1631,-6.1798,-6.1804,-6.1672,-6.1678,-6.1683,-6.1686,0,0,0,0,0,0,0,-6.1178,-6.1201,-6.143,-6.1373,-6.1376,-6.1366,-6.1382,-6.1492,-6.1535,-6.1447,-6.1444,-6.1463,-6.158,-6.1621,-6.1634,-6.1807,-6.1672,-6.1681,-6.1687,-6.1691,-6.2104,-6.2109,0,0,0,0,0,0,-6.1166,-6.1193,-6.1425,-6.1434,-6.1269,-6.1376,-6.1393,-6.145,-6.1533,-6.1542,-6.1466,-6.146,-6.1606,-6.1622,-6.1639,-6.1819,-6.1683,-6.1692,-6.1698,-6.2099,-6.2105,-6.2111,0,0,0,0,0,0,-6.116,-6.1188,-6.1419,-6.1313,-6.1342,-6.1386,-6.1451,-6.1455,-6.1496,-6.1548,-6.1555,-6.15,-6.1603,-6.1625,-6.1753,-6.1824,-6.1697,-6.1706,-6.2094,-6.2101,-6.2108,-6.2182,0,0,0,0,0,0,-6.1151,-6.1185,-6.1243,-6.1315,-6.1348,-6.1531,-6.1455,-6.1461,-6.1514,-6.1507,-6.1581,-6.159,-6.1601,-6.1739,-6.1764,-6.1836,-6.1714,-6.2087,-6.2097,-6.2106,-6.2173,-6.2191,-6.2206,0,0,0,0,0,-6.114,-6.1258,-6.1246,-6.1274,-6.1421,-6.1536,-6.1554,-6.1566,-6.1519,-6.1577,-6.1611,-6.1587,-6.1813,-6.1752,-6.178,-6.1856,-6.2083,-6.2094,-6.2105,-6.2166,-6.2187,-6.2205,0,0,0,0,0,0,-6.1192,-6.1267,-6.1255,-6.14,-6.1462,-6.1529,-6.1602,-6.1589,-6.1664,-6.1655,-6.1666,-6.1683,-6.1814,-6.1849,-6.1779,-6.2006,-6.1941,-6.1958,-6.1978,-6.1999,-6.2015,-6.2002,-6.1722,0,0,0,0,0,-6.1221,-6.1309,-6.1369,-6.1491,-6.1523,-6.1558,-6.1608,-6.1612,-6.1676,-6.1702,-6.1745,-6.1808,-6.1893,-6.1948,-6.203,-6.2179,-6.2194,-6.2246,-6.2262,-6.2275,-6.2288,-6.2369,-6.2392,-6.2147,-6.2147,-6.2147,0,0,-6.128,-6.1332,-6.1387,-6.1503,-6.1551,-6.1641,-6.158,-6.1677,-6.1743,-6.1716,-6.1839,-6.1874,-6.1945,-6.2085,-6.2148,-6.2117,-6.236,-6.2289,-6.2299,-6.2306,-6.2383,-6.2406,-6.2426,-6.2154,-6.2153,-6.2152,0,0,-6.1434,-6.1483,-6.1589,-6.1639,-6.1714,-6.1736,-6.1762,-6.1832,-6.1854,-6.1978,-6.196,-6.2039,-6.2186,-6.2237,-6.2282,-6.2458,-6.2437,-6.2484,-6.2568,-6.2646,-6.2665,-6.2682,-6.2742,-6.2764,-6.2498,-6.2498,-6.2498,0,-6.1498,-6.1632,-6.1645,-6.1745,-6.1796,-6.1778,-6.1885,-6.1933,-6.203,-6.2065,-6.203,-6.2214,-6.226,-6.2411,-6.2454,-6.2492,-6.252,-6.2473,-6.2662,-6.2679,-6.2695,-6.2752,-6.2775,-6.2503,-6.2503,-6.2502,-6.2502,0,-6.1706,-6.18,-6.1877,-6.1972,-6.2032,-6.2135,-6.2163,-6.2223,-6.2223,-6.2249,-6.2376,-6.2432,-6.2524,-6.2561,-6.2561,-6.2712,-6.269,-6.2659,-6.2593,-6.2723,-6.2777,-6.2799,-6.251,-6.2508,-6.2507,-6.2506,0,0,-6.1893,-6.1995,-6.2023,-6.2065,-6.2147,-6.222,-6.2323,-6.2413,-6.2463,-6.2532,-6.2616,-6.2742,-6.2714,-6.2765,-6.2772,-6.2841,-6.2974,-6.2801,-6.2803,-6.2828,-6.3141,-6.3161,-6.3186,-6.2963,-6.2967,-6.2971,-6.3134,0,-6.2051,-6.2231,-6.2247,-6.2408,-6.2494,-6.2479,-6.2568,-6.2628,-6.2656,-6.2733,-6.2765,-6.2852,-6.281,-6.284,-6.2909,-6.2943,-6.3036,-6.2932,-6.304,-6.3044,-6.3018,-6.3215,-6.3237,-6.3387,-6.3155,-6.3159,-6.3161,0,-6.2259,-6.2334,-6.2504,-6.2574,-6.261,-6.269,-6.2774,-6.2849,-6.2916,-6.2932,-6.2991,-6.2988,-6.3093,-6.3027,-6.3171,-6.31,-6.3146,-6.317,-6.3176,-6.3183,-6.3107,-6.3224,-6.3436,-6.3457,-6.3195,-6.3192,-6.319,0,-6.2374,-6.2518,-6.2638,-6.2676,-6.2761,-6.2817,-6.2855,-6.2919,-6.2972,-6.3047,-6.3081,-6.3167,-6.3213,-6.3279,-6.33,-6.325,-6.3442,-6.3378,-6.3456,-6.3456,-6.3494,-6.349,-6.3712,-6.353,-6.353,-6.3529,-6.3529,0,-6.2547,-6.2651,-6.2691,-6.2764,-6.288,-6.2898,-6.3012,-6.3048,-6.3105,-6.3184,-6.3178,-6.3253,-6.3278,-6.3357,-6.3374,-6.3489,-6.3511,-6.3525,-6.3528,-6.3524,-6.3522,-6.3551,-6.354,-6.3535,-6.3534,-6.3533,-6.3532,0,-6.2694,-6.2725,-6.2854,-6.2926,-6.2946,-6.3028,-6.3088,-6.3159,-6.3187,-6.3288,-6.3313,-6.3357,-6.3449,-6.3478,-6.359,-6.3602,-6.3736,-6.3731,-6.3712,-6.3711,-6.3787,-6.3778,-6.4032,-6.4066,-6.3864,-6.3866,-6.3868,0,-6.28,-6.2879,-6.2959,-6.3012,-6.3053,-6.3139,-6.3193,-6.3215,-6.3272,-6.3356,-6.3416,-6.3509,-6.3583,-6.3732,-6.3773,-6.3859,-6.3854,-6.3938,-6.3866,-6.386,-6.3851,-6.3845,-6.3852,-6.3949,-6.3951,-6.3953,-6.3955,0,-6.2984,-6.2996,-6.3075,-6.3161,-6.3226,-6.3295,-6.336,-6.3404,-6.3435,-6.35,-6.3595,-6.3653,-6.3768,-6.3859,-6.3946,-6.3985,-6.3975,-6.3977,-6.3999,-6.3994,-6.3978,-6.3985,-6.3745,-6.397,-6.3969,-6.3967,-6.3967,-6.3966,-6.3111,-6.3181,-6.3248,-6.3336,-6.3388,-6.345,-6.352,-6.3557,-6.3637,-6.3732,-6.3741,-6.3843,-6.391,-6.4026,-6.407,-6.415,-6.4125,-6.4158,-6.4166,-6.4172,-6.4177,-6.3969,-6.4166,-6.4166,-6.4166,-6.4165,-6.4165,0,-6.3292,-6.3335,-6.3417,-6.3509,-6.3579,-6.3566,-6.3638,-6.3697,-6.3787,-6.385,-6.3924,-6.4033,-6.4122,-6.4172,-6.426,-6.4315,-6.4312,-6.4337,-6.4331,-6.434,-6.4195,-6.4166,-6.4337,-6.4337,-6.4337,-6.4337,-6.4337,-6.4337,-6.3394,-6.351,-6.3531,-6.3673,-6.3715,-6.3815,-6.3858,-6.3915,-6.3965,-6.4087,-6.4161,-6.4194,-6.4252,-6.4344,-6.4425,-6.4437,-6.4469,-6.4496,-6.4505,-6.4368,-6.435,-6.4333,-6.4305,-6.4503,-6.4504,-6.4642,-6.4644,-6.4645]},{"header":{"parameterUnit":"m.s-1","parameterCategory":1,"la1":30.2991,"la2":30.254,"lo1":-89.0895,"lo2":-89.0444,"dy":0.0017,"dx":0.0017,"nx":28,"ny":28,"refTime":"2024-04-25T21:00:00:Z","depth":0,"parameterNumber":3,"parameterNumberName":"V-component_of_WINDS"},"data":[0,0,0,0,0,0,0,0,0,0,0,0,0,0,0,0,0,0,0,0,0,0,0,0,0,0,0,0,0,0,0,0,0,0,0,0,0,0,0,0,0,0,0,0,0,0,0,0,0,0,0,0,0,0,0,0,0,0,3.0308,3.0308,0,3.0282,3.0282,3.0282,3.0235,3.0234,3.0233,3.0233,3.0203,3.0203,3.0203,0,0,0,0,0,0,0,0,0,0,0,0,0,3.0317,3.0317,3.0308,3.0308,3.0308,3.0282,3.0282,3.0282,3.0235,3.0234,3.0233,3.0232,3.0203,3.0203,3.0203,0,0,0,0,0,0,0,0,0,0,0,0,0,3.0304,3.0317,3.0309,3.0282,3.0279,3.0282,3.0282,3.0282,3.0236,3.0234,3.0233,3.0232,3.0203,3.0203,3.0203,3.0229,0,0,3.0203,3.0203,0,0,0,0,0,0,0,0,3.0305,3.0304,3.0286,3.0284,3.0281,3.0261,3.0274,3.0264,3.0236,3.0252,3.0233,3.0231,3.0223,3.0221,3.0219,3.0228,3.0226,3.0203,3.0203,3.0203,3.0203,0,0,0,0,0,0,0,3.0306,3.0305,3.0298,3.0286,3.0283,3.0271,3.0267,3.0272,3.0245,3.025,3.0247,3.0245,3.0221,3.0219,3.0218,3.0226,3.0203,3.0203,3.0203,3.0203,3.0257,3.0258,0,0,0,0,0,0,3.0311,3.0306,3.0299,3.0297,3.029,3.0272,3.0268,3.0268,3.0245,3.024,3.0246,3.0243,3.022,3.0218,3.0217,3.0247,3.0203,3.0203,3.0203,3.0255,3.0257,3.0259,0,0,0,0,0,0,3.0311,3.0311,3.03,3.0301,3.0298,3.0273,3.0274,3.0269,3.0266,3.0241,3.0236,3.0249,3.0218,3.0217,3.0227,3.0245,3.0203,3.0203,3.0254,3.0256,3.0258,3.0307,0,0,0,0,0,0,3.0312,3.0311,3.0321,3.0301,3.0299,3.0311,3.0275,3.0269,3.0267,3.0263,3.0243,3.0238,3.0217,3.0227,3.0227,3.0244,3.0203,3.0252,3.0255,3.0257,3.0304,3.0311,3.0317,0,0,0,0,0,3.0312,3.0335,3.0322,3.0321,3.0311,3.0312,3.0311,3.0287,3.0269,3.0278,3.0263,3.0239,3.0244,3.0229,3.0228,3.0246,3.0251,3.0254,3.0257,3.0301,3.031,3.0317,0,0,0,0,0,0,3.0356,3.0332,3.0317,3.0334,3.0326,3.0304,3.0316,3.0297,3.0292,3.0288,3.0258,3.0254,3.0269,3.0258,3.0242,3.0271,3.0243,3.0247,3.0277,3.0285,3.0291,3.0293,3.0203,0,0,0,0,0,3.0368,3.0372,3.035,3.0368,3.0365,3.0341,3.0341,3.0324,3.0314,3.031,3.0294,3.0285,3.0284,3.0284,3.0282,3.0303,3.0298,3.0315,3.0321,3.0327,3.033,3.0341,3.0349,3.0269,3.0269,3.0269,0,0,3.0392,3.0379,3.0383,3.0376,3.0368,3.0373,3.0338,3.0344,3.0347,3.031,3.0319,3.0308,3.0295,3.0312,3.0318,3.0303,3.0351,3.0331,3.0335,3.0335,3.0345,3.0353,3.0359,3.0271,3.0271,3.0271,0,0,3.0438,3.0429,3.0443,3.0436,3.0424,3.0409,3.0413,3.0395,3.0387,3.0396,3.0369,3.0372,3.0371,3.0364,3.036,3.0407,3.0385,3.0407,3.044,3.0452,3.0458,3.0463,3.048,3.0487,3.041,3.041,3.041,0,3.0469,3.0476,3.0452,3.0461,3.0459,3.0427,3.0441,3.0435,3.0423,3.0423,3.0407,3.0407,3.0396,3.0411,3.0423,3.042,3.0424,3.0408,3.0459,3.0464,3.0469,3.0485,3.0491,3.0413,3.0412,3.0412,3.0412,0,3.0515,3.052,3.0533,3.0524,3.0523,3.0535,3.0513,3.0515,3.0499,3.0486,3.0496,3.0483,3.0478,3.048,3.0463,3.0493,3.0485,3.0465,3.0436,3.048,3.0494,3.05,3.0417,3.0416,3.0415,3.0414,0,0,3.0585,3.0566,3.0571,3.0567,3.0553,3.0557,3.0567,3.0564,3.0567,3.0561,3.0569,3.057,3.0552,3.0548,3.0531,3.0541,3.058,3.052,3.0519,3.0532,3.0613,3.0628,3.0635,3.0566,3.0567,3.0568,3.0614,0,3.0629,3.0646,3.0626,3.0647,3.0653,3.0624,3.0633,3.0626,3.0614,3.0617,3.0603,3.0605,3.0581,3.0579,3.0588,3.0574,3.0596,3.057,3.0573,3.0573,3.0577,3.0643,3.0658,3.0702,3.062,3.062,3.0621,0,3.0681,3.0679,3.0701,3.0688,3.0689,3.0698,3.0695,3.0697,3.0689,3.068,3.0677,3.0657,3.0666,3.064,3.0652,3.0635,3.0635,3.0629,3.063,3.0629,3.0599,3.0643,3.0715,3.0722,3.063,3.0629,3.0628,0,3.0731,3.0734,3.0748,3.0745,3.073,3.0737,3.0731,3.0721,3.0721,3.0719,3.0719,3.0716,3.0715,3.0714,3.0694,3.0677,3.071,3.0681,3.0702,3.0703,3.0709,3.0709,3.0782,3.0711,3.071,3.071,3.071,0,3.0781,3.0795,3.077,3.0779,3.0795,3.0773,3.0789,3.078,3.0772,3.0778,3.0753,3.076,3.0733,3.0737,3.0722,3.0735,3.0735,3.0727,3.0723,3.0729,3.073,3.0729,3.0725,3.0712,3.0712,3.0711,3.0711,0,3.0839,3.0822,3.0836,3.0822,3.0818,3.0831,3.0818,3.0826,3.0813,3.0822,3.0823,3.0803,3.0806,3.0787,3.0786,3.0776,3.0797,3.0787,3.08,3.0797,3.0819,3.0818,3.0893,3.0903,3.0825,3.0826,3.0827,0,3.0871,3.0883,3.087,3.0873,3.0869,3.0874,3.0875,3.0854,3.0855,3.0848,3.0857,3.0858,3.0858,3.0865,3.085,3.085,3.084,3.0867,3.084,3.0847,3.0841,3.084,3.0842,3.0872,3.0873,3.0874,3.0875,0,3.0932,3.0924,3.0926,3.0927,3.0929,3.0928,3.0925,3.0929,3.0906,3.0909,3.0913,3.0914,3.0914,3.0916,3.0914,3.0907,3.0887,3.0884,3.0889,3.0895,3.0902,3.0899,3.0815,3.0882,3.0881,3.088,3.088,3.088,3.0978,3.0987,3.098,3.0984,3.0981,3.0979,3.0986,3.0976,3.0979,3.0979,3.0966,3.0973,3.0965,3.096,3.0956,3.096,3.0948,3.0954,3.0956,3.0958,3.0962,3.0902,3.096,3.096,3.0959,3.0959,3.0959,0,3.1037,3.1032,3.1036,3.1034,3.1038,3.1021,3.1017,3.1021,3.1028,3.1023,3.1025,3.103,3.1032,3.1019,3.102,3.1027,3.1018,3.1027,3.1026,3.1025,3.0974,3.0969,3.1035,3.1035,3.1035,3.1035,3.1035,3.1035,3.1068,3.1083,3.1075,3.1088,3.1082,3.109,3.1089,3.1088,3.1085,3.1092,3.1095,3.1087,3.1079,3.1079,3.1081,3.1077,3.1078,3.1091,3.1084,3.1036,3.1029,3.1022,3.1018,3.1092,3.1092,3.1136,3.1136,3.1136]}]]